www.pogodaiklimat.ru

Погода и климат >> Архив погоды >> Россия >> Приморский край >> Хороль


ПОГОДА в Хороле

  • Прогноз погоды в Хороле
  • Монитор погоды в Хороле

АРХИВ ПОГОДЫ в Хороле

Время (UTC), дата Ветер
(напр.,м/с)
 
Видим.   Явления Облачность Т
(С)
Тd
(С)
f
(%)
Тe
(С)
Тes
(С)
Комфортность P
(гПа)
Po
(гПа)
Тmin
(С)
Tmax
(С)
R
(мм)
R24
(мм)
S
(см)
21 11.07 ЮВ 1 20 км {ливн. осадки} 8/0
[Ac trans]
+15.5 +14.3 93 +16 +17 1004.8 989.8 +15.3 0.0
00 12.07 Ю 1 н/о н/о +18.6 +15.1 80 +21 +21 комфорт 1004.3 989.5
03 12.07 В 2 50 км 10/4 600 м
[Sc Cc]
+22.0 +15.6 67 +26 +26 душно 1003.8 989.3
06 12.07 СВ 2 н/о н/о +23.0 +17.0 69 +28 +28 душно 1002.5 988.0
09 12.07 СВ 2 20 км 9/8 600 м
[Sc Ci sp]
+22.9 +16.4 67 +28 +28 душно 1001.1 986.7 +24.4
12 12.07 В 1 н/о н/о +19.9 +16.1 79 +23 +23 комфорт 1002.6 988.0
15 12.07 З 1 10 км слаб. ливневой дождь 10/10 200 м
[Cb cap]
+17.5 +16.0 91 +19 +19 1004.1 989.3
18 12.07 СЗ 1 н/о н/о +16.7 +15.7 94 +18 +18 1002.8 988.0
21 12.07 СЗ 1 20 км 10/10 200 м
[St]
+17.5 +16.5 94 +19 +19 1002.7 987.9 +16.6 0.0
00 13.07 СЗ 1 н/о н/о +18.3 +17.2 93 +20 +20 1003.8 989.0
03 13.07 В 2 50 км 10/10 200 м
[St]
+19.9 +16.5 81 +23 +23 комфорт 1003.9 989.3
06 13.07 СВ 1 н/о н/о +20.0 +17.2 84 +24 +24 комфорт 1003.9 989.3
09 13.07 СВ 1 50 км {ливн. осадки} 10/10 200 м
[St]
+19.6 +17.5 88 +23 +23 комфорт 1002.5 987.8 +20.8 3
12 13.07 штиль 0 н/о н/о +18.5 +17.4 93 +19 +19 1003.8 989.0
18 13.07 СВ 1 н/о н/о +18.2 +17.6 96 +20 +20 1005.4 990.7
21 13.07 В 1 н/о н/о +17.0 +16.4 96 +18 +18 1004.6 989.7 +16.9 6
00 14.07 В 1 н/о н/о +18.3 +17.5 95 +20 +20 1005.0 990.2
03 14.07 ЮВ 2 50 км 10 баллов +21.8 +17.4 76 +26 +26 душно 1006.6 992.0
06 14.07 В 2 н/о н/о +24.5 +17.7 66 +29 +29 душно 1005.1 990.7
09 14.07 В 2 50 км 8/6 200 м
[St Cc]
+23.0 +17.5 71 +28 +29 душно 1005.2 990.7 +25.0 0.7
12 14.07 штиль 0 н/о н/о +20.4 +18.3 88 +24 +24 комфорт 1006.6 992.0
15 14.07 Ю 1 20 км 7 баллов +19.5 +18.2 92 +23 +23 комфорт 1008.0 993.3
18 14.07 ЮВ 1 н/о н/о +19.0 +18.2 95 +22 +22 комфорт 1008.0 993.3
21 14.07 Ю 1 50 км 8/4 600 м
[Sc Cc]
+18.1 +16.9 93 +19 +20 1008.3 993.5 +18.0
00 15.07 Ю 3 н/о н/о +21.0 +17.7 81 +25 +25 комфорт 1009.3 994.6
03 15.07 Ю 2 50 км 9 баллов +22.1 +17.2 74 +27 +29 душно 1010.6 996.0
06 15.07 Ю 2 н/о н/о +24.5 +18.0 67 +29 +29 душно 1010.5 996.0
09 15.07 ЮВ 2
{10}
20 км в посл. час ливневой дождь 9/8 200 м
[Sc diur, vesp Ac cuf Ci sp]
+20.1 +18.8 92 +24 +24 комфорт 1010.7 996.0 +24.9 2
12 15.07 Ю 3 н/о н/о +19.0 +17.0 88 +21 +21 комфорт 1012.1 997.3
15 15.07 Ю 2 50 км 6 баллов +17.7 +15.9 89 +18 +18 1013.6 998.7
18 15.07 Ю 2 н/о н/о +16.1 +15.1 94 +16 +16 1013.7 998.7
21 15.07 ЮЗ 2 50 км 10/10 200 м
[St]
+17.1 +15.9 93 +17 +17 1013.1 998.1 +16.1
00 16.07 Ю 4 н/о н/о +18.9 +16.6 87 +20 +20 1013.5 998.6
03 16.07 Ю 4 50 км 10 баллов +21.4 +17.2 77 +25 +25 комфорт 1013.4 998.7
06 16.07 Ю 4 н/о н/о +22.4 +17.1 72 +27 1011.9 997.3
09 16.07 Ю 4
{10}
50 км 8/8 200 м
[St Cc]
+19.9 +16.1 79 +22 +23 комфорт 1012.0 997.3 +23.0
12 16.07 Ю 5
{11}
н/о н/о +17.5 +15.3 87 +17 +17 1011.8 996.8
15 16.07 Ю 5 50 км 10 баллов +16.3 +14.7 90 +15 +15 1012.2 997.3
18 16.07 Ю 4 н/о н/о +16.0 +14.7 92 +15 1012.3 997.3
21 16.07 Ю 4 20 км 10/10 200 м
[St]
+16.7 +15.2 91 +16 +16 1010.8 995.8 +15.8
00 17.07 Ю 4
{10}
н/о н/о +18.4 +16.0 86 +19 +19 1010.4 995.5
03 17.07 Ю 4 50 км 10 баллов +21.0 +17.0 78 +25 +25 комфорт 1010.7 996.0
06 17.07 Ю 4 н/о н/о +21.5 +17.7 79 +26 1009.3 994.7
09 17.07 Ю 5
{11}
50 км 8/6 300 м
[St Ac trans Cc]
+20.2 +17.3 83 +23 +23 комфорт 1007.7 992.9 +22.3
12 17.07 Ю 4
{13}
н/о н/о +18.5 +17.5 94 +19 +19 1008.5 993.7
15 17.07 Ю 4 10 км слаб. ливневой дождь 10 баллов +18.6 +17.3 92 +19 +19 1009.5 994.7
18 17.07 Ю 4 н/о н/о +18.9 +17.9 94 +20 1008.0 993.3
21 17.07 Ю 3 50 км 10/10 200 м
[St]
+19.2 +17.9 92 +21 +21 комфорт 1007.5 992.7 11
00 18.07 Ю 4 н/о н/о +21.5 +19.1 86 +26 +26 душно 1007.2 992.6
03 18.07 Ю 4 50 км 7 баллов +25.0 +20.5 76 +31 +35 очень
душно
1007.7 993.3
06 18.07 ЮЗ 6 н/о н/о +24.4 +20.7 80 +30 1006.4 992.0
09 18.07 Ю 5-11
{13}
20 км 8/6 200 м
[St Cc]
+23.3 +19.6 80 +30 +30 очень
душно
1005.2 990.7 +26.1
12 18.07 Ю 5-11
{13}
н/о н/о +20.9 +19.0 89 +25 +25 комфорт 1005.6 991.0
15 18.07 ЮЗ 3 20 км 10 баллов +20.2 +18.9 92 +24 +24 комфорт 1006.6 992.0

 

Местоположение метеостанции Хороль (Приморский край, Россия): широта 44.43 долгота 132.00 высота над уровнем моря 127 м.

В архиве по умолчанию представлена погода в Хороле за последнюю неделю. Архивные данные за месяц целиком и за предыдущие месяцы, начиная с января 2011 года, Вы можете получить, выбрав интересующий диапазон дат из раскрывающегося списка и нажав кнопку "Ввод!".


*Определитесь, кто Вы:
робот инопланетянин человек

Внимание! Время в таблицах - всемирное. Для получения местного времени необходимо прибавить поправку, которая равна 10 ч.

Смотрите также архив погоды в соседних городах и на ближайших метеорологических станциях:

Погода в Астраханке (Приморский край, Россия) (32 км)
Погода в Пограничном (Приморский край, Россия) (56 км)
Погода в Тимирязевском (Приморский край, Россия) (62 км)
Погода в Спасск-Дальнем (Приморский край, Россия) (67 км)
Погода в Суйфэньхэ (Хэйлунцзян, Китай) (68 км)
Погода в Полтавке (Приморский край, Россия) (71 км)
Погода в Турьем Роге (Приморский край, Россия) (87 км)
Погода в Свиягино (Приморский край, Россия) (89 км)
Погода в Анучино (Приморский край, Россия) (95 км)
Погода в Многоудобном (Приморский край, Россия) (113 км)

Пояснения к столбцам:

Ветер - указаны скорость ветра в м/с - средняя за 10 мин, порывы в срок и между сроками (в фигурных скобках) и направление, откуда дует ветер: С - северный, СВ - северо-восточный, В - восточный, ЮВ - юго-восточный, Ю - южный, ЮЗ - юго-западный, З - западный, СЗ - северо-западный.
Видимость - горизонтальная дальность видимости в метрах или километрах. При видимости от 1 до 10 км при отсутствии осадков обычно наблюдается дымка, при ухудшении видимости до 1 км и менее - туман. В сухую погоду видимость может ухудшаться дымом, пылью или мглою.
Явления - указаны атмосферные явления, наблюдавшиеся в срок или в последний час перед сроком; фигурными скобками обозначены явления, наблюдавшиеся между сроками (за 1-3 часа до срока); квадратными скобками обозначены град или гололедные отложения с указанием их диаметра в мм.
Облачность - указаны через наклонную черту общая и нижняя облачность в баллах и высота нижней границы облаков в метрах; квадратными скобками обозначены формы облаков: Ci - перистые, Cs - перисто-слоистые, Cc - перисто-кучевые, Ac - высококучевые, As - высокослоистые, Sc - слоисто-кучевые, Ns - слоисто-дождевые, Cu - кучевые, Cb - кучево-дождевые. Подробнее классификацию облаков см. в Атласе облаков (PDF).
T - Температура воздуха - температура, измеренная на высоте 2 м над землей.
Td - Температура точки росы - температура, при понижении до которой содержащийся в воздухе водяной пар достигнет насыщения.
f - Относительная влажность воздуха - влажноcть воздуха, измеренная на высоте 2 м над землей.
Te - Эффективная температура - температура, которую ощущает одетый по сезону человек в тени. Характеристика душности погоды. При расчете учитывается влияние влажности воздуха и скорости ветра на теплоощущения человека.
Tes - Эффективная температура на солнце - температура, которую ощущает человек, с поправкой на солнечный нагрев. Характеристика знойности погоды. Зависит от высоты солнца над горизонтом, облачности и скорости ветра. Ночью, в пасмурную погоду, а также при ветре 12 м/с и более поправка равна нулю.
P - Атмосферное давление - приведенное к уровню моря атмосферное давление.
Po - Атмосферное давление - измеренное на уровне метеостанции атмосферное давление.
Tmin - Минимальная температура - минимум температуры воздуха на высоте 2 м над землей.
Tmax - Максимальная температура - максимум температуры воздуха на высоте 2 м над землей.
R - Количество осадков - Количество выпавших осадков за период времени, мм. При наведении курсора мыши на число - период времени, за который выпало указанное количество осадков.
R24 - Количество осадков - Количество выпавших осадков за 24 часа, мм.
S - Снежный покров - Высота снежного покрова, см. При наведении курсора мыши на число - состояние снежного покрова и степень покрытия местности в баллах.